{"data":{"norad_id":43603,"epoch":"2026-05-22T19:22:01.149600Z","epoch_age_seconds":261771,"freshness":"STALE","line1":"1 43603U 18067B   26142.80695775  .00000038  00000+0  00000+0 0  9999","line2":"2 43603  54.1759 181.8646 0004460  15.0351 345.0417  1.86227142 52679","mean_motion":1.86227142,"eccentricity":0.000446,"inclination_deg":54.1759,"raan_deg":181.8646,"arg_perigee_deg":15.0351,"mean_anomaly_deg":345.0417,"bstar":0,"rev_number":5267,"period_min":773.24926137781,"perigee_km":21515.990645469,"apogee_km":21540.883309457,"semimajor_km":27906.573977463,"source":"CELESTRAK","updated_at":"2026-05-25T13:38:24.219427Z"}}